Location: Bednik
(45.3500°N, 16.3833°E)
Time: 23:54:48
(UTC+00:00)

Lacrosse 5 - Pass Details

Date: 08 August 2020
Orbit: 716 x 722 km, 57.0° (Epoch: 21 September)

Event Time Altitude Azimuth Distance (km) Brightness Sun altitude
Rises 19:55:14 0° 308° (NW) 3,132 7.0 -15.9°
Reaches altitude 10° 19:57:52 10° 319° (NW) 2,211 5.7 -16.2°
Maximum altitude 20:02:23 31° 21° (NNE) 1,258 3.3 -16.8°
Enters shadow 20:06:21 13° 80° (E) 2,033 3.9 -17.3°
